Regional Weather Roundup
Issued by NWS Wakefield, VA

Home | Current Version | Previous Version | Graphics & Text | Print | Product List | Glossary On
Versions: 1 2 3 4 5 6 7 8 9 10 11 12 13 14 15 16 17 18 19 20 21 22 23 24 25 26 27
000
ASUS41 KAKQ 310310
RWRAKQ

REGIONAL WEATHER ROUNDUP
NATIONAL WEATHER SERVICE WAKEFIELD VA
1100 PM EDT THU OCT 30 2014

Note: "fair" indicates few or no clouds below 12,000 feet with no
significant weather and/or obstructions to visibility. * = Denotes
station may not report precipitation (e.g., rain,snow,etc.),
thunder or fog.

VAZ042-051-052>054-056-310400-
NORTHERN VIRGINIA

CITY           SKY/WX    TMP DP  RH WIND       PRES   REMARKS
WASH NATIONAL  PTCLDY    53  36  52 NW7       30.05F
DULLES         CLEAR     38  35  89 CALM      30.05F
FORT BELVOIR   CLEAR     43  39  83 W1        30.06S
QUANTICO       CLEAR     46  38  73 NW8       30.06F
FREDERICKSBRG* CLOUDY    44  39  83 CALM      30.05S
STAFFORD*      PTCLDY   N/A N/A N/A NW5       30.09S
WARRENTON      CLEAR     34  34 100 CALM      30.05S
CULPEPER*      CLEAR     37  36  93 CALM      30.06F
MANASSAS*      CLEAR     39  39 100 CALM      30.06S
LEESBURG*      CLOUDY    43  41  93 CALM      30.06S
WINCHESTER     CLOUDY    46  34  61 CALM      30.05S
FRONT ROYAL*   MOCLDY    43  37  81 CALM      30.04F
LURAY*         CLEAR     41  37  87 SW5       30.05S
$$

VAZ048-049-060>072-079>083-310400-
CENTRAL AND SOUTH CENTRAL VIRGINIA...AND NORTH CENTRAL NORTH CAROLINA

CITY           SKY/WX    TMP DP  RH WIND       PRES   REMARKS
RICHMOND       PTCLDY    48  37  65 N7        30.04R
CHESTERFIELD*  CLEAR     48  30  49 N5        30.05S
PETERSBURG*    PTCLDY    46  38  74 N3        30.04S
HANOVER        CLEAR     46  37  71 CALM      30.06S
TAPPAHANNOCK*  CLEAR     42  36  79 CALM      30.05S
CHARLOTTSVILLE CLEAR     45  33  63 CALM      30.05S
ORANGE*        CLEAR     41  36  81 CALM      30.06F
LOUISA*        PTCLDY    43  36  75 CALM      30.04S
FARMVILLE*     CLEAR     45  36  70 CALM      30.03S
CREWE*         CLEAR     44  38  78 CALM      30.04S
FORT PICKETT*  CLEAR     46  38  74 N5        30.03S
LUNENBURG*     CLEAR     47  40  74 N6        30.03S
SOUTH HILL*    MOCLDY    50  43  76 N3        30.07S
LAWRENCEVILLE* MOCLDY    47  42  82 CALM      30.03R
ROANOKE RAPIDS CLEAR     45  43  93 CALM      30.01F
RALEIGH        CLEAR     48  44  86 NE3       30.00R
$$

VAZ088>098-310400-
SOUTHEAST VIRGINIA

CITY           SKY/WX    TMP DP  RH WIND       PRES   REMARKS
NORFOLK        PTCLDY    57  42  57 NE9       30.01F
VIRGINIA BEACH CLEAR     52  41  66 N6        30.01S
NORFOLK NAVAL  PTCLDY    59  41  51 NE13      30.03S
WEST POINT*    CLEAR     47  43  88 CALM      30.05S
NEWPORT NEWS   LGT RAIN  48  43  82 CALM      30.02S
LANGLEY AFB    CLEAR     46  45  99 NW2       30.02F
FORT EUSTIS    CLEAR     48  48 100 N1        30.01S
WILLIAMSBURG*  CLEAR     48  46  93 CALM      30.03F
HR EXEC AP*    CLEAR     39  36  87 CALM      30.04S
FRANKLIN*      CLEAR     45 N/A N/A CALM      30.02S
WAKEFIELD      PTCLDY    44  41  89 CALM      30.03S
$$

VAZ020-022-025-037-045-310400-
WEST CENTRAL AND SOUTHWEST VIRGINIA

CITY           SKY/WX    TMP DP  RH WIND       PRES   REMARKS
STAUNTON*      CLEAR     34  31  86 CALM      30.07S
HOT SPRINGS VA CLEAR     35  29  79 NE5       29.98F
LYNCHBURG      CLEAR     44  35  70 N3        30.05R
DANVILLE       CLEAR     49  39  68 NE7       30.03R
SOUTH BOSTON*  NOT AVBL
MARTINSVILLE   CLEAR     40  40 100 CALM      30.05R
ROANOKE        CLEAR     44  34  67 CALM      30.06R
BLACKSBURG     CLEAR     36  36 100 CALM      30.05S
DUBLIN*        CLEAR     39  34  81 CALM      30.04S
MARION*        PTCLDY    38  35  92 CALM      30.04F
HILLSVILLE*    PTCLDY    42  35  75 NE3       30.02S
RICHLANDS*     CLEAR     43  35  74 NE6       30.03S
WISE*          CLEAR     39  32  75 N3        30.04S
ABINGDON*      CLEAR     41  37  85 CALM      30.01F
$$

MDZ021>025-VAZ099-100-310400-
SOUTHERN MARYLAND AND THE DELMARVA PENINSULA

CITY           SKY/WX    TMP DP  RH WIND       PRES   REMARKS
PATUXENT RIVER PTCLDY    51  40  65 NW9       30.04S
BAY BRIDGE APT   N/A     52  41  66 NW3       30.04F
LEONARDTOWN    CLEAR     43  37  81 CALM      30.05F
DOVER          CLEAR     45  39  78 NW6       30.02R
GEORGETOWN     PTCLDY    49  39  68 CALM      30.04S
EASTON         CLEAR     49  42  77 CALM      30.08
CAMBRIDGE      CLEAR     50  39  66 CALM      30.03F
SALISBURY      CLEAR     50  39  66 N5        30.03S
OCEAN CITY     CLEAR     45  40  82 N5        30.02F
WALLOPS ISLAND CLEAR     48  40  73 N7        30.03S
ACCOMACK*      CLEAR     43  41  93 NE6       30.02S
$$

NCZ012>017-030>032-310400-
EASTERN NORTH CAROLINA

CITY           SKY/WX    TMP DP  RH WIND       PRES   REMARKS
ELIZABETH CITY CLEAR     55  47  74 N7        30.01S
AHOSKIE*       NOT AVBL
EDENTON*       CLEAR     50  45  83 NE3       30.01S
CURRITUCK*     CLEAR     50  46  87 CALM      30.01F
KILL DEVIL HLS PTCLDY    60  46  59 NE8       29.98S
MANTEO         PTCLDY    59  46  60 NE9       29.99F
CAPE HATTERAS  CLEAR     60  50  69 NE12G17   29.96S
TARBORO*       CLEAR     47  45  92 CALM      30.02S
GOLDSBORO      CLEAR     50  49  97 E2        29.97S
WASHINGTON     CLEAR     50  46  86 NE3       30.00S
GREENVILLE     CLEAR     52  48  87 E3        30.02S
NEW BERN       CLEAR     57  50  77 NE7       29.99S
WILMINGTON     CLEAR     53  50  89 NE7       29.97R
$$

VAZ048-310400-
ELSEWHERE

CITY           SKY/WX    TMP DP  RH WIND       PRES   REMARKS
HARRISBURG PA  MOCLDY    47  41  80 CALM      30.03S
BALTIMORE      CLOUDY    51  38  60 CALM      30.04F
ANNAPOLIS      CLOUDY    52  44  74 NW3       30.04F
ANDREWS AFB    PTCLDY    47  39  73 N5        30.04F
WILMINGTON DE  CLEAR     45  38  76 CALM      30.05S
PHILADELPHIA   CLEAR     49  34  56 CALM      30.05S
WILDWOOD NJ*   CLEAR     46  37  71 N6        30.04S
ATLANTIC CITY  CLEAR     42  37  82 CALM      30.04S
HENDERSON NC   CLEAR     47  43  87 N5        30.02S
GREENSBORO     CLEAR     49  40  71 N3        30.00R
ROCKY MOUNT    CLEAR     50  45  83 NE6       30.01R
FAYETTEVILLE   CLEAR     52  46  80 N3        29.97S
CHARLOTTE      CLEAR     53  34  48 NE3       29.99R
$$

VAZ100-310400-
MARINE

STATION/POSITION TIME  TEMP    WIND        PRES    WAVE   SWELL
                       AIR SEA DIR/SP/G            HT/PER HT/PER
                 (UTC) (F)     (DEG/KT/KT) (MB)    (FT/S) (FT/S)
44066 TX TWR #4  0300   57 64  340/ 10/ 12 1015.4S   2/ 4   2/ 8
CAPE MAY NJ      0200          350/  4/  7   N/A
LEWES DE         0200          320/ 12/ 14   N/A
15NM E FENWICK I 0300   58 63              1016.0F   2/ 3
OCEAN-CITY-INLET 0200          340/  7/  9   N/A
WACHAPREAGUE VA  0200          350/  4/  7   N/A
THOMAS POINT MD  0300   53 61  320/  8/ 10 1018.3F
GOOSES REEF MD   0300   56      30/ 10/ 12 1017.6S
COVE POINT MD    0200           20/ 12/ 14   N/A
BISHOPS HEAD MD  0200          360/  7/ 10   N/A
PINEY POINT MD   0200           30/  7/  9   N/A
POTOMAC MD       0300   55      10/  8/ 10 1016.4R
CAMBRIDGE MD     0200           10/  4/  6   N/A
LEWISETTA VA     0200          360/  6/ 10   N/A
RAPPAHANNOCK LGT 0200           10/ 13/ 15   N/A
STINGRAY PT      0300   58      40/ 12/ 16 1017.2R
YORK RVR RNG VA  0200           20/  9/ 10   N/A
YORKTOWN VA      0200           10/  5/  6   N/A
JAMESTOWN VA     0300   52      30/  2/  4   N/A
DOMINION TERM VA 0200           20/  4/  5   N/A
KIPTOPEKE VA     0200           50/  5/  7   N/A
CHES BAY BRIDGE  0200           10/ 13/ 16   N/A
CHESAPEAKE LGHT  0200   59      20/ 14/ 15 1016.7R
WILLOUBY STN VA  0200           10/  9/ 10   N/A
S CRANEY ISL VA  0200           20/  8/ 10   N/A
CAPE HENRY BUOY  0300      65                N/A     3/ 5
1ST LANDING BUOY 0300   59      30/ 14/ 16 1016.0S
CAPE CHARLES BUO 0300      65                N/A     3/ 5   2/ 7
64NM E OF VA BCH 0300   61 66   30/ 10/ 16 1015.4S   2/ 7   2/ 7
DUCK PIER NC     0200           30/ 13/ 18   N/A
44100 DUCK FRF   0300      67                N/A     3/ 5
DIAMOND SHLS NC  0300   65      20/ 19/ 25 1013.6F   4/ 5   2/ 8
CAPE LOOKOUT NC  0200   62      20/ 14/ 17 1014.4S
$$



USA.gov is the U.S. government's official web portal to all federal, state and local government web resources and services.